EDT,Max TemperatureF,Mean TemperatureF,Min TemperatureF,Max Dew PointF,MeanDew PointF,Min DewpointF,Max Humidity, Mean Humidity, Min Humidity, Max Sea Level PressureIn, Mean Sea Level PressureIn, Min Sea Level PressureIn, Max VisibilityMiles, Mean VisibilityMiles, Min VisibilityMiles, Max Wind SpeedMPH, Mean Wind SpeedMPH, Max Gust SpeedMPH,PrecipitationIn, CloudCover, Events, WindDirDegrees
2011-10-1,57,54,50,50,46,43,87,75,71,29.80,29.74,29.70,10,10,4,12,8,17,0.00,7,Rain,300
2011-10-2,46,44,42,45,41,39,93,90,87,29.82,29.79,29.77,10,7,2,13,7,21,0.23,8,Rain,321
2011-10-3,50,45,42,45,42,39,93,87,82,30.05,29.99,29.91,10,10,7,7,3,,0.01,8,Rain,233
2011-10-4,66,55,44,54,49,32,94,77,57,30.16,30.12,30.08,10,7,0,12,4,21,0.01,6,Fog-Rain,303
2011-10-5,73,63,53,52,46,37,88,59,29,30.22,30.19,30.15,10,10,10,12,6,18,0.00,0,,308
2011-10-6,66,55,44,48,41,36,82,58,32,30.42,30.37,30.31,10,10,10,9,3,,0.00,0,,337
2011-10-7,71,58,46,52,47,43,93,70,38,30.50,30.43,30.37,10,10,10,6,1,,0.00,0,,32
2011-10-8,75,62,48,54,49,45,94,68,34,30.56,30.50,30.46,10,10,5,5,0,,0.00,0,,194
2011-10-9,80,65,50,61,51,46,88,68,32,30.49,30.45,30.38,10,10,7,4,0,,0.00,0,,263
2011-10-10,78,66,55,63,56,52,94,72,42,30.36,30.30,30.22,10,10,10,5,1,,0.00,0,,10
2011-10-11,71,63,55,63,57,54,94,77,64,30.20,30.16,30.10,10,10,5,7,2,,0.00,1,,71
2011-10-12,64,62,59,57,56,50,88,83,59,30.11,30.02,29.90,10,9,3,13,8,21,0.07,8,Rain,90
2011-10-13,69,66,62,66,64,61,94,92,88,29.79,29.67,29.58,10,4,0,15,6,22,0.29,8,Fog-Rain-Thunderstorm,124
2011-10-14,68,64,60,64,60,46,94,86,52,29.58,29.50,29.45,10,9,3,20,10,24,0.32,6,Rain-Thunderstorm,202
2011-10-15,66,58,51,43,37,27,71,49,23,29.79,29.71,29.67,10,10,10,25,12,37,0.00,0,,242
2011-10-16,69,60,50,46,37,28,62,43,28,30.00,29.90,29.74,10,10,10,18,10,24,0.00,0,,225
2011-10-17,69,62,55,50,38,21,68,45,16,29.88,29.80,29.69,10,10,10,14,9,26,0.00,3,,262
2011-10-18,73,60,48,48,40,27,87,54,19,29.89,29.85,29.81,10,10,10,8,1,,0.00,1,,133
2011-10-19,66,62,59,61,57,52,94,85,72,29.79,29.61,29.38,10,8,2,17,7,29,0.23,6,Rain,93
2011-10-20,66,58,51,64,48,37,94,73,51,29.67,29.45,29.26,10,10,5,22,12,29,0.00,6,Rain-Thunderstorm,213
2011-10-21,53,50,46,41,40,37,81,67,58,30.08,29.95,29.78,10,10,10,16,9,21,0.00,5,,251
2011-10-22,55,50,44,43,40,39,82,70,54,30.15,30.12,30.09,10,10,10,8,5,,0.00,7,,266
2011-10-23,62,50,37,45,40,36,93,73,39,30.17,30.13,30.09,10,9,7,9,1,,0.00,0,,227
2011-10-24,62,55,48,54,48,45,94,79,59,30.13,30.07,30.00,10,9,3,8,4,,0.00,1,Rain,183
2011-10-25,64,55,46,46,39,28,87,60,27,30.19,30.13,30.08,10,10,10,14,7,20,0.00,0,,276
2011-10-26,62,56,51,52,46,41,77,68,55,30.05,29.93,29.83,10,10,10,10,6,,0.00,1,Rain,225
2011-10-27,62,54,46,57,53,43,94,85,72,29.86,29.69,29.60,10,10,5,13,5,23,0.15,7,Rain,243
2011-10-28,48,42,35,36,28,21,87,61,37,30.24,30.17,30.04,10,10,7,12,6,18,0.00,0,,21
2011-10-29,39,36,33,36,32,30,93,88,81,30.19,30.03,29.91,10,3,0,15,7,21,0.74,8,Rain-Snow,29
2011-10-30,46,36,26,34,30,25,93,80,46,30.30,30.21,30.04,10,10,5,7,4,,0.03,0,,308
2011-10-31,53,42,30,36,32,27,93,70,35,30.36,30.31,30.26,10,10,7,12,3,17,0.00,1,,155